Zurück zum Katalog

HULIANWANG DIGUI-01

AktivKommunikationPO
NORAD 62323·PAYLOAD·🇨🇳 China

Gestartet Dec 16, 2024 von Wenchang Space Launch Site

Loading…

Nächste Überflüge (nächste 24 Stunden)

TLE

AktuellSource: Space-Track

Epoche: Sep 14, 2026, 14:21 UTC

1 62323U 24240A   26257.59846106  .00000025  00000-0  24423-4 0  9995
2 62323  86.4995 313.0893 0001775  89.8380 270.2957 13.24414058 84479

Verfolge HULIANWANG DIGUI-01 in Echtzeit mit AllMySat

Download on the App Store